Wind_Speed
17 16 17 17 17 17 16 16 16 16 17 17 17 17 16 15 14 15 14 13 13 14 14 15 15 16 17 18 18 18 19 20 20 20 21 21 21 21 21 21 21 21 21
16 16 17 18 18 17 17 16 17 17 17 17 17 17 17 16 16 15 15 15 15 15 15 15 16 17 17 18 18 19 20 20 21 21 22 23 22 23 23 23 23 23 22
17 16 17 18 18 17 17 17 17 17 17 17 17 17 18 18 18 17 16 16 16 16 16 16 17 17 17 18 19 19 20 20 21 22 24 24 24 24 24 24 24 24 24
18 17 17 17 17 18 17 18 17 17 16 17 17 18 18 18 18 18 17 17 17 17 18 18 18 17 18 19 20 20 21 22 23 24 24 25 25 25 25 25 26 26 26
18 17 17 17 17 17 17 17 17 17 17 18 18 18 19 19 19 19 18 18 18 18 18 19 19 19 19 20 20 21 22 23 23 24 25 25 25 25 26 26 27 27 27
17 17 18 18 18 17 16 16 17 18 18 18 18 19 19 20 20 20 19 19 18 19 19 19 19 20 19 19 20 21 23 24 24 25 25 26 26 27 27 27 27 28 29
17 16 16 17 18 18 17 17 17 18 18 18 18 19 19 20 20 20 19 19 18 19 20 19 19 20 20 20 21 22 22 23 24 25 25 26 26 27 28 29 29 30 30
16 15 15 16 16 17 17 17 17 18 18 19 19 19 19 19 19 19 19 19 20 20 20 20 20 20 20 21 22 22 23 24 24 25 26 26 26 27 27 29 30 30 31
15 16 15 15 16 17 17 17 18 18 18 18 19 19 20 19 19 19 19 20 21 21 21 21 21 21 21 22 22 23 23 24 25 26 27 28 28 28 28 29 29 30 32
14 15 14 15 16 16 17 17 17 18 19 19 20 20 20 19 20 19 20 21 21 21 22 22 22 22 23 23 23 24 25 25 25 26 27 29 29 30 30 30 31 31 31
14 14 14 15 15 16 16 17 17 17 18 18 19 19 20 20 20 20 20 21 22 22 22 22 23 24 25 25 25 25 26 26 27 27 28 29 30 30 30 30 31 31 32
14 15 15 15 15 15 16 16 16 17 17 17 17 18 19 19 19 20 21 21 22 22 22 23 24 25 25 26 26 26 26 27 27 28 29 30 31 31 31 32 32 33 33
14 15 14 14 15 16 16 16 16 17 17 17 17 18 19 19 20 21 21 22 22 22 23 23 24 25 26 27 27 28 27 27 28 29 29 31 32 33 33 33 34 34 34
13 13 14 14 14 15 15 15 16 16 16 17 17 18 18 19 20 20 21 21 22 22 23 24 25 26 27 28 28 28 27 27 28 29 30 31 33 33 34 35 35 35 36
12 12 12 13 13 13 14 14 15 15 15 16 17 18 18 19 19 20 20 20 21 21 22 23 24 25 27 28 29 28 29 29 29 30 31 31 32 32 33 34 35 36 36
11 11 11 12 12 12 13 14 15 14 14 15 16 16 17 17 18 19 20 20 20 21 22 23 24 25 27 28 29 30 29 29 30 30 31 31 30 31 32 32 33 34 36
10 10 11 11 12 12 12 13 14 14 15 15 16 16 17 17 19 20 21 21 22 22 23 24 25 26 27 28 29 29 30 29 30 30 30 30 30 30 30 32 33 33 34
10 10 11 11 11 12 12 13 14 14 14 15 16 16 16 17 18 19 21 21 22 22 23 24 25 26 27 28 28 29 28 28 29 29 30 30 30 30 30 30 32 33 33
10 10 10 10 11 12 12 12 13 14 14 14 15 15 16 17 18 19 20 20 21 22 23 24 24 26 26 27 27 27 27 27 28 29 29 29 29 30 30 30 31 32 33
9 9 9 9 10 10 12 12 13 13 14 14 14 15 15 16 18 19 19 20 21 21 23 23 24 25 26 26 26 26 27 27 27 28 28 28 29 30 30 30 30 31 32
8 9 9 9 10 11 11 12 13 14 14 14 14 15 16 17 17 18 19 20 20 21 22 24 24 24 24 25 25 26 26 26 27 27 27 28 28 28 28 29 29 29 29
9 10 10 11 11 11 12 14 14 15 15 15 15 16 16 17 17 18 19 20 21 22 23 23 23 23 24 24 24 24 25 25 25 26 27 26 26 26 27 27 28 27 28
10 10 10 11 12 12 13 14 14 14 13 14 14 15 16 17 18 19 20 21 22 23 23 22 22 23 23 24 24 24 25 25 25 25 25 25 25 25 25 26 27 27 27
11 11 11 12 12 12 14 14 14 14 14 14 14 15 16 17 18 19 20 21 22 23 23 23 23 23 23 24 24 24 25 25 24 24 24 24 24 25 25 25 26 27 27
11 12 12 13 13 13 14 14 15 14 14 14 14 15 16 17 19 20 21 22 22 22 23 23 23 23 23 24 24 24 24 23 22 22 23 23 23 24 24 24 25 26 27
12 12 12 12 13 13 13 14 14 14 14 14 15 16 17 18 19 20 21 21 22 22 22 22 22 23 23 23 23 23 23 23 22 22 23 24 24 23 23 23 24 25 26
Wind_Direction
276 273 271 270 268 265 265 266 267 265 262 265 267 268 267 268 271 270 271 274 275 273 269 268 267 266 265 264 262 260 259 259 256 255 255 255 254 254 253 253 253 252 252
276 273 272 270 267 266 267 269 270 268 264 263 264 266 265 266 267 269 270 271 272 274 273 271 267 265 266 267 265 262 261 260 258 257 257 256 255 255 253 254 254 255 255
276 277 273 267 266 265 265 264 263 262 262 262 264 266 265 266 268 269 268 269 271 274 274 272 271 269 267 268 267 266 264 262 260 258 258 256 255 255 254 254 255 255 255
277 276 273 267 264 263 262 260 259 261 264 265 266 266 267 269 270 270 268 270 272 273 274 273 272 271 271 270 269 269 268 266 264 263 261 259 257 258 257 256 256 255 255
279 275 272 269 267 265 263 260 262 263 266 266 267 268 268 268 270 270 270 270 272 273 272 271 272 271 272 272 273 272 270 269 268 266 264 262 261 260 259 258 257 256 256
279 274 273 270 267 265 265 264 263 264 267 268 268 270 269 269 270 270 271 272 273 274 275 274 274 274 274 274 273 272 272 270 270 268 267 264 262 261 260 259 259 258 257
281 277 275 271 267 263 263 264 265 266 269 268 269 270 271 271 273 272 273 274 275 277 278 276 276 275 275 275 275 274 273 272 271 270 268 266 265 263 262 262 261 260 258
281 277 277 273 268 264 264 266 267 268 270 268 267 268 270 271 271 272 272 274 275 278 278 277 277 278 278 278 277 275 274 273 271 269 268 267 266 267 266 264 262 260 258
285 281 276 272 269 269 270 271 272 268 269 266 268 270 272 272 272 271 272 274 276 277 277 277 278 280 279 280 281 279 278 275 273 271 269 268 267 267 268 266 264 262 260
284 282 277 274 271 271 272 273 272 270 268 266 267 270 271 272 271 269 272 276 277 276 277 280 282 282 282 282 282 280 278 277 275 273 272 269 268 267 266 266 265 264 262
285 281 276 276 276 274 274 274 274 273 269 268 267 269 272 272 274 273 275 278 277 277 278 281 283 283 283 283 283 282 280 278 276 274 274 272 271 269 267 266 265 263 262
286 284 280 280 279 275 274 277 277 276 272 270 270 272 273 274 277 280 281 281 279 278 280 281 284 284 284 285 284 283 281 279 277 275 275 273 272 271 269 268 267 264 262
286 283 282 283 281 278 278 279 279 278 273 271 273 274 274 276 279 283 284 282 280 280 282 284 285 285 285 286 286 284 282 280 278 278 277 275 272 271 269 268 269 266 263
288 283 281 283 284 283 282 280 280 279 275 273 276 279 279 279 281 285 285 283 282 282 283 284 286 287 287 287 287 285 283 281 279 279 278 277 274 272 269 268 268 268 265
292 285 285 287 286 286 285 282 281 279 279 279 280 282 281 282 283 285 287 286 285 285 285 285 286 288 288 288 287 285 285 283 280 279 278 278 275 274 272 270 269 268 265
295 290 288 290 290 289 289 287 284 280 282 282 284 285 285 285 287 289 289 290 289 290 289 288 289 291 291 290 289 286 286 284 282 280 278 278 276 274 274 273 272 269 265
298 295 293 293 292 289 291 291 287 286 287 287 286 286 286 287 290 291 291 292 292 292 290 290 291 293 293 291 290 287 285 284 283 281 280 279 277 274 275 275 273 272 268
299 295 294 293 294 293 294 295 296 294 292 292 290 289 289 290 291 293 293 294 293 293 293 293 294 296 295 294 292 291 288 286 285 283 282 281 278 275 275 276 274 272 269
302 302 301 299 298 299 298 298 301 300 298 296 295 292 290 292 296 297 297 297 297 297 296 297 297 299 298 296 295 293 291 289 288 286 284 283 281 278 276 276 275 273 270
305 304 307 308 306 305 304 303 303 306 304 301 299 295 293 297 299 300 301 301 301 301 301 301 301 301 301 299 296 294 292 291 290 289 289 287 285 282 278 277 277 275 273
308 307 307 311 309 307 308 309 306 307 304 300 298 296 298 300 300 302 304 305 305 305 305 305 304 303 302 301 300 298 294 293 293 293 292 291 289 286 282 280 278 278 275
313 309 307 308 307 304 305 309 307 306 304 301 299 300 302 302 304 305 306 307 305 305 308 308 307 307 306 305 304 302 298 295 294 294 294 293 292 290 287 284 282 282 278
311 309 309 310 308 308 309 311 308 305 305 306 306 305 307 309 309 309 309 308 308 308 310 310 309 311 311 309 307 306 304 302 300 299 298 296 295 295 292 287 287 285 283
313 310 309 306 309 311 312 312 310 308 306 306 308 309 310 312 311 311 309 309 310 311 311 312 311 311 313 314 313 312 309 308 305 303 301 300 298 296 295 293 289 287 285
320 315 315 316 315 314 313 311 311 311 310 309 310 311 311 312 314 313 312 312 312 313 313 314 312 313 315 315 314 313 311 310 307 306 304 303 302 300 299 297 295 292 289
327 324 322 322 319 316 313 311 310 312 311 311 313 314 314 314 315 315 316 315 314 314 315 315 315 315 315 315 315 316 315 313 312 309 308 307 305 303 301 300 298 295 292
Height
5834 5834 5834 5834 5835 5835 5836 5836 5837 5837 5838 5838 5838 5838 5838 5839 5839 5839 5839 5839 5839 5839 5840 5840 5840 5841 5841 5842 5842 5843 5843 5844 5845 5845 5847 5848 5849 5850 5850 5851 5852 5854 5855
5830 5830 5830 5830 5831 5831 5832 5832 5833 5833 5833 5834 5834 5835 5835 5835 5835 5835 5835 5836 5836 5836 5836 5836 5836 5837 5837 5838 5838 5838 5839 5839 5840 5841 5841 5842 5843 5844 5845 5846 5847 5848 5849
5826 5826 5825 5826 5826 5827 5828 5828 5828 5829 5829 5830 5830 5831 5831 5832 5832 5832 5832 5832 5832 5832 5832 5832 5832 5833 5833 5833 5834 5834 5834 5834 5835 5835 5836 5837 5837 5838 5839 5840 5841 5842 5843
5821 5822 5822 5822 5822 5823 5823 5824 5824 5825 5826 5826 5826 5827 5827 5828 5828 5828 5828 5828 5828 5828 5828 5828 5828 5828 5828 5829 5829 5829 5829 5829 5829 5830 5830 5831 5831 5832 5833 5834 5835 5836 5837
5817 5817 5818 5817 5818 5818 5819 5820 5820 5821 5822 5823 5823 5823 5823 5824 5824 5824 5824 5824 5824 5824 5824 5824 5824 5823 5823 5823 5824 5824 5824 5823 5823 5824 5824 5824 5825 5826 5826 5827 5828 5829 5830
5813 5813 5813 5813 5814 5815 5815 5815 5816 5817 5817 5818 5819 5819 5819 5819 5819 5819 5820 5819 5819 5819 5819 5819 5819 5818 5818 5818 5818 5817 5817 5817 5817 5817 5818 5818 5818 5819 5820 5820 5821 5822 5823
5809 5809 5809 5809 5810 5810 5811 5811 5811 5812 5812 5813 5814 5814 5814 5814 5815 5815 5815 5815 5815 5815 5814 5814 5814 5813 5813 5812 5812 5812 5811 5811 5811 5811 5811 5811 5811 5812 5812 5813 5813 5814 5815
5805 5805 5805 5805 5805 5806 5806 5807 5807 5807 5808 5808 5809 5809 5809 5810 5810 5810 5810 5810 5810 5810 5810 5809 5809 5808 5807 5807 5806 5806 5805 5805 5804 5804 5804 5804 5804 5804 5805 5805 5805 5806 5807
5801 5801 5801 5801 5801 5801 5802 5802 5802 5803 5803 5803 5804 5805 5805 5805 5805 5805 5805 5805 5805 5805 5804 5804 5803 5802 5802 5801 5800 5799 5799 5798 5797 5797 5797 5797 5797 5797 5797 5797 5797 5797 5798
5798 5798 5797 5797 5797 5797 5797 5797 5797 5798 5798 5799 5799 5799 5800 5800 5800 5800 5800 5800 5799 5799 5799 5798 5797 5796 5796 5795 5794 5793 5792 5791 5790 5790 5789 5789 5788 5788 5788 5788 5788 5789 5789
5795 5794 5794 5794 5793 5793 5793 5793 5793 5793 5793 5793 5794 5794 5794 5795 5795 5795 5795 5794 5794 5793 5792 5792 5791 5790 5789 5788 5787 5786 5785 5784 5783 5782 5781 5780 5780 5779 5779 5779 5779 5779 5780
5791 5790 5790 5790 5789 5789 5789 5788 5789 5789 5789 5789 5789 5790 5790 5790 5790 5790 5789 5788 5788 5787 5786 5785 5784 5783 5782 5781 5780 5778 5777 5776 5775 5774 5773 5772 5771 5770 5770 5770 5769 5769 5770
5787 5786 5786 5786 5785 5785 5784 5784 5784 5784 5784 5785 5785 5785 5785 5785 5785 5784 5783 5782 5781 5781 5779 5778 5777 5776 5775 5773 5772 5770 5769 5767 5766 5765 5764 5763 5762 5761 5760 5760 5760 5759 5760
5782 5782 5782 5782 5781 5781 5780 5780 5780 5780 5780 5780 5780 5780 5780 5780 5779 5778 5777 5776 5775 5774 5773 5772 5770 5769 5767 5766 5764 5762 5761 5759 5757 5756 5754 5753 5752 5751 5750 5750 5749 5749 5749
5779 5778 5778 5778 5778 5777 5777 5777 5776 5776 5776 5776 5776 5775 5775 5774 5773 5772 5771 5770 5769 5767 5766 5765 5763 5762 5760 5758 5755 5754 5752 5750 5748 5746 5745 5743 5742 5741 5740 5739 5739 5738 5738
5776 5775 5775 5775 5775 5774 5774 5773 5773 5772 5771 5771 5771 5770 5769 5768 5767 5766 5765 5764 5762 5761 5759 5758 5756 5754 5752 5749 5747 5745 5742 5740 5738 5737 5735 5733 5732 5731 5729 5728 5728 5727 5727
5774 5773 5773 5772 5772 5771 5770 5770 5769 5768 5767 5767 5766 5765 5764 5763 5762 5761 5760 5758 5756 5754 5753 5751 5748 5746 5743 5741 5738 5735 5733 5731 5729 5727 5725 5723 5722 5721 5720 5718 5717 5716 5716
5771 5771 5770 5770 5769 5768 5768 5767 5766 5765 5764 5763 5762 5761 5760 5759 5757 5756 5754 5752 5750 5748 5746 5744 5741 5738 5735 5733 5730 5727 5724 5721 5719 5717 5715 5713 5712 5711 5709 5708 5707 5706 5706
5769 5769 5768 5767 5766 5765 5765 5764 5763 5761 5760 5759 5758 5757 5755 5754 5752 5750 5748 5746 5744 5741 5739 5736 5734 5731 5728 5725 5722 5718 5715 5712 5710 5708 5706 5704 5702 5701 5699 5698 5696 5695 5695
5767 5767 5766 5765 5764 5763 5762 5761 5760 5758 5757 5755 5754 5753 5751 5749 5748 5745 5743 5740 5738 5735 5732 5730 5727 5724 5720 5717 5713 5710 5707 5704 5702 5699 5697 5695 5693 5691 5689 5688 5687 5685 5684
5765 5765 5764 5763 5762 5761 5759 5758 5756 5755 5753 5752 5750 5749 5747 5745 5743 5740 5738 5735 5732 5729 5726 5723 5720 5717 5713 5709 5706 5703 5699 5697 5694 5691 5688 5686 5683 5681 5679 5678 5677 5675 5675
5764 5763 5762 5761 5759 5758 5757 5755 5753 5752 5750 5748 5746 5744 5742 5740 5738 5735 5733 5730 5727 5724 5721 5717 5714 5710 5707 5703 5699 5695 5692 5689 5686 5684 5680 5678 5675 5673 5670 5669 5668 5666 5665
5762 5761 5759 5758 5757 5755 5754 5752 5749 5748 5746 5744 5742 5740 5738 5736 5733 5730 5727 5724 5721 5718 5715 5712 5708 5704 5700 5696 5692 5688 5684 5681 5678 5675 5672 5670 5667 5665 5662 5660 5659 5658 5657
5760 5758 5757 5755 5754 5752 5750 5748 5745 5744 5742 5740 5738 5736 5734 5731 5728 5726 5723 5719 5716 5712 5709 5705 5702 5698 5694 5690 5685 5681 5677 5674 5671 5668 5665 5663 5660 5658 5655 5653 5651 5649 5648
5758 5756 5754 5752 5750 5748 5746 5744 5742 5740 5738 5736 5734 5732 5729 5727 5724 5720 5717 5714 5710 5706 5702 5699 5695 5692 5688 5684 5679 5675 5672 5668 5665 5662 5659 5657 5654 5651 5648 5645 5643 5641 5639
5755 5753 5751 5749 5747 5745 5743 5741 5739 5737 5735 5733 5730 5728 5725 5722 5719 5715 5712 5708 5705 5701 5697 5694 5690 5686 5682 5678 5674 5670 5666 5662 5659 5657 5653 5650 5647 5644 5642 5639 5636 5633 5631